Weather Service Report


798 
ASUS45 KBOU 281407
RWRCO 

WEATHER ROUNDUP FOR COLORADO
NATIONAL WEATHER SERVICE DENVER/BOULDER CO
800 AM MDT THU JUL 28 2016

NOTE: "FAIR" INDICATES FEW OR NO CLOUDS BELOW 12000 FEET WITH NO
SIGNIFICANT WEATHER AND/OR OBSTRUCTIONS TO VISIBILITY.

COZ001>005-013-030-031-281500-
...NORTHWEST COLORADO...
  
CITY           SKY/WX    TMP DP  RH WIND       PRES   REMARKS
CRAIG          FAIR      54  35  48 CALM      30.29S                  
HAYDEN         FAIR      57  28  33 E9        30.30R                  
MEEKER         FAIR      58  33  39 VRB3      30.30R                  
MOUNT WERNER   NOT AVBL                                               
STEAMBOAT SPGS FAIR      50  33  51 CALM      30.33R                  
WALDEN         FAIR      50  32  50 CALM      30.41S                  
$$

COZ006>008-011-281500-
...WEST CENTRAL VALLEYS...
  
CITY           SKY/WX    TMP DP  RH WIND       PRES   REMARKS
GRAND JUNCTION FAIR      72  33  24 SE14      30.15R                  
MONTROSE       FAIR      69  36  29 SE7       30.24R                  
EAGLE          SUNNY     54  30  40 CALM      30.37R                  
RIFLE          FAIR      63  39  41 CALM      30.24R                  
DELTA          NOT AVBL                                               
NUCLA          NOT AVBL                                               
$$

COZ017>023-064>068-281500-
...SOUTHWEST COLORADO...
  
CITY           SKY/WX    TMP DP  RH WIND       PRES   REMARKS
DURANGO        FAIR      65  40  39 CALM      30.34R                  
CORTEZ         FAIR      64  42  44 CALM      30.25S                  
PAGOSA SPRINGS FAIR      64  37  37 CALM      30.44S                  
TELLURIDE      FAIR      62  31  32 CALM      30.53S                  
WOLF CREEK PAS FAIR      52  36  54 SW20G25   30.77R                  
$$

COZ009-010-012-014-032>034-037-058>063-281500-
...CENTRAL COLORADO...
  
CITY           SKY/WX    TMP DP  RH WIND       PRES   REMARKS
ASPEN          FAIR      59  35  40 CALM      30.40R                  
BUENA VISTA    FAIR      57  32  38 N3        30.42S                  
COPPER MTN     FAIR      57  19  23 W9        30.72S                  
BERTHOUD PASS  FAIR      48  34  57 N22G32    30.73R                  
COTTONWOOD PAS FAIR      64  27  24 CALM      30.54S                  
GUNNISON       FAIR      50  36  57 N5        30.47S                  
KREMMLING      FAIR      50  34  53 CALM      30.41F                  
LEADVILLE      FAIR      52  27  38 NE3       30.54R                  
MONARCH PASS   FAIR      50  36  57 MISG      30.82R                  
SALIDA         FAIR      61  33  35 N8        30.45S                  
SUNLIGHT       NOT AVBL                                               
WILKERSON PASS FAIR      54  34  47 SW10G17   30.67S                  
$$

COZ069>075-281500-
...SAN LUIS VALLEY/SANGRE DE CRISTO MOUNTAINS...
  
CITY           SKY/WX    TMP DP  RH WIND       PRES   REMARKS
ALAMOSA        FAIR      64  48  56 CALM      30.41R                  
LA VETA PASS   FAIR      55  41  58 S14G23    30.58S                  
SAGUACHE       FAIR      61  36  39 NW12      30.45R                  
$$

COZ035-036-038>040-281500-
...NORTHERN COLORADO FRONT RANGE...
  
CITY           SKY/WX    TMP DP  RH WIND       PRES   REMARKS
DENVER INTL AP FAIR      69  58  67 SE6       30.16F                  
DMNS CITY PARK   N/A     70  59  68 S1        30.17S                  
AURORA         MOSUNNY   67  57  70 N2        30.19F                  
FRONT RANGE AP MOSUNNY   72  57  60 SE8       30.18R                  
ERIE MUNI ARPT FAIR      65  60  82 CALM      30.16R                  
BOULDER MUN AP FAIR      64  61  88 CALM      30.16S                  
CENTENNIAL     FAIR      68  54  60 SE5       30.20R                  
BROOMFIELD     MOSUNNY   64  59  82 CALM      30.19F                  
LONGMONT       NOT AVBL                                               
$$

COZ041-046-047-076>085-087-088-281500-
...PIKES PEAK/PALMER DIVIDE AND SOUTHERN FOOTHILLS...
  
CITY           SKY/WX    TMP DP  RH WIND       PRES   REMARKS
COLO. SPRINGS  FAIR      66  55  67 SE12      30.27F                  
A. F. ACADEMY  FAIR      64  53  68 S8        30.27S                  
SCHRIEVER AFB  NOT AVBL                                               
ELLICOTT       FAIR     N/A N/A N/A SE14      30.26R                  
FALCON         FAIR      62  57  83 SE8       30.31                   
FORT CARSON    FAIR      66  56  70 E7        30.25R                  
LIMON          FAIR      64  57  78 S25       30.20F                  
MONUMENT HILL  FAIR      63  54  72 S15       30.29F                  
TRINIDAD       NOT AVBL                                               
$$

COZ042>045-048>051-090-091-281500-
...NORTHEAST COLORADO...
  
CITY           SKY/WX    TMP DP  RH WIND       PRES   REMARKS
GREELEY ARPT   CLOUDY    63  61  94 N13       30.18R                  
AKRON          FAIR      66  54  65 CALM      30.19R                  
BURLINGTON     FAIR      67  56  67 S15       30.14R                  
WRAY           FAIR      68  55  64 E7        30.12R                  
STERLING       NOT AVBL                                               
HOLYOKE        NOT AVBL                                               
FORT MORGAN    NOT AVBL                                               
$$

COZ086-089-092>099-281500-
...SOUTHEAST COLORADO...
  
CITY           SKY/WX    TMP DP  RH WIND       PRES   REMARKS
PUEBLO         FAIR      71  58  63 E8        30.18S                  
LA JUNTA       FAIR      71  58  63 E14       30.16S                  
LAMAR          FAIR      70  61  73 SE10      30.14F                  
SPRINGFIELD      N/A     70  57  63 SE12      30.20S                  
$$
  

Return to Home page


Western Regional Climate Center, wrcc@dri.edu